Weather in Dmitrovsk

Russia / Oryol Oblast     52°30′19″N   35°08′29″E
temp.,
°C
wind,
m/s
gust,
m/s
humid.,
%
clouds,
%
prec.,
mm/h
press.,
hPa
HPBL,
m
28 september, tue
tue2800:00+6n4996100 0.0 1024261
03:00+7n4892100 0.0 1024385
06:00+7nne4994100 0.1 1024419
09:00+8nne5891100 0.1 1025480
12:00+9ne4783100 0.2 1026704
15:00+8ne478489 0.4 1028623
18:00+7ne588399 0.1 1030534
21:00+7ne5985100 0.1 1031636
29 september, wed
wed2900:00+6ene4783100 0.0 1032529
03:00+5ne4884100 0.0 1033367
06:00+5ne488594 0.0 1034409
09:00+6ene577322 0.0 1035439
12:00+9ene45575 0.0 10341035
15:00+11ne44505 0.0 10331184
18:00+8ne336532 0.0 103439
21:00+6ne3371100 0.0 103441
30 september, thu
thu3000:00+5ene2273100 0.0 103520
03:00+4ne117659 0.0 103510
06:00+3ne22785 0.0 103517
09:00+7ne23684 0.0 1035209
12:00+11ene33582 0.0 1035846
15:00+12ene335637 0.0 10341183
18:00+10ene346393 0.0 103493
21:00+8e35741 0.0 1035105
1 october, fri
fri100:00+6e22781 0.0 103622
03:00+5ese22811 0.0 103610
06:00+4e22840 0.0 103610
09:00+8ese22710 0.0 1036196
12:00+12se23580 0.0 1036848
15:00+13sse22510 0.0 10351096
18:00+10se22644 0.0 103410
21:00+8ese22704 0.0 103510
2 october, sat
sat200:00+7se22742 0.0 103515
03:00+6sse22795 0.0 103514
06:00+5sse22805 0.0 103516
09:00+9se23679 0.0 1034177
12:00+13sse345410 0.0 1034824
15:00+14se345356 0.0 1033955
18:00+10ese337135 0.0 103346
21:00+10ese3571100 0.0 1033124